User: anonymous   Login
Location: *
(33.8649°S, 62.1526°E)
Time: 12:08:40
(UTC+00:00)
Language:

CZ-2C R/B - Orbit

View from above orbital plane
View from above orbital plane
View from above satellite
View from above satellite

Ground track
Ground track

The orbit data is extracted from the following two-line orbital elements,

1 28222U 04012C   21166.90025492  .00000303  00000-0  21944-4 0  9990
2 28222  97.7271 137.6884 0045424 225.4614 156.5621 15.10898195940894
Epoch (UTC): 15 June 2021 21:36:22
Eccentricity: 0.0045424
inclination: 97.7271°
perigee height: 502 km
apogee height: 565 km
right ascension of ascending node: 137.6884°
argument of perigee: 225.4614°
revolutions per day: 15.10898195
mean anomaly at epoch: 156.5621°
orbit number at epoch: 94089

The dashed part of the orbit path shows where the satellite is in the earth's shadow,  

DLR